Binghamton, NY

1:58 AM EDT on October 23, 2019 (GMT -0400)
Binghamton Regional-Link

Weather History for KBGM - May, 2019

Change the Weather History Date:

Saturday, May 25, 2019

  Actual Average Record
Temperature  
Mean Temperature 58 °F 58 °F  
Max Temperature 71 °F 68 °F 85 °F (1981)
Min Temperature 44 °F 49 °F 31 °F (1956)
Degree Days  
Heating Degree Days 7 7  
Month to date heating degree days 265 266  
Since 1 July heating degree days 7055 7065  
Cooling Degree Days 0 1  
Month to date cooling degree days 4 13  
Year to date cooling degree days 4 17  
Growing Degree Days 8 (Base 50)    
Moisture  
Dew Point 52 °F    
Average Humidity 81    
Maximum Humidity 100    
Minimum Humidity 61    
Precipitation  
Precipitation 0.51 in 0.12 in 0.90 in (1952)
Month to date precipitation 4.70 2.84  
Year to date precipitation 16.18 14.02  
Snow  
Snow 0.00 in 0.00 in T in (2000)
Month to date snowfall 0.0 0.1  
Since 1 July snowfall 81.4 83.4  
Snow Depth 0.00 in    
Sea Level Pressure  
Sea Level Pressure 30.08 in    
Wind  
Wind Speed 9 mph (South)    
Max Wind Speed 17 mph    
Max Gust Speed 24 mph    
Visibility 7 miles    
Events Rain , Thunderstorm    
T = Trace of Precipitation, MM = Missing Value Source: NWS Daily Summary

Daily Weather History Graph

Daily Weather History Graph

Search for Another Location

Airport or City:

Astronomy

May. 25, 2019 Rise Set
Actual Time 5:34 AM EDT 8:27 PM EDT
Civil Twilight 5:01 AM EDT 9:00 PM EDT
Nautical Twilight 4:19 AM EDT 9:43 PM EDT
Astronomical Twilight 3:30 AM EDT 10:31 PM EDT
Moon 1:26 AM EDT (5/25) 11:32 AM EDT (5/25)
Length of Visible Light 15h 59m
Length of Day
14h 53m
Waning Gibbous, 60% of the Moon is Illuminated
May 25
Waning Gibbous
May 26
Last Quarter
Jun 3
New
Jun 10
First Quarter
Jun 17
Full

Hourly Weather History & Observations

Time (EDT) Temp. Windchill Dew Point Humidity Pressure Visibility Wind Dir Wind Speed Gust Speed Precip Events Conditions
12:53 AM 50.0 °F - 45.0 °F 83% 30.19 in 10.0 mi Calm Calm - N/A   Clear
1:53 AM 48.0 °F - 44.1 °F 86% 30.18 in 10.0 mi Calm Calm - N/A   Clear
2:53 AM 48.0 °F - 44.1 °F 86% 30.16 in 10.0 mi East 4.6 mph - N/A   Clear
3:53 AM 46.9 °F - 45.0 °F 93% 30.16 in 10.0 mi Calm Calm - N/A   Clear
4:53 AM 46.9 °F - 45.0 °F 93% 30.16 in 10.0 mi SE 3.5 mph - N/A   Clear
5:11 AM 45.0 °F 42.6 °F 44.1 °F 97% 30.15 in 2.0 mi SE 4.6 mph - N/A   Partly Cloudy
5:18 AM 44.1 °F 41.5 °F 43.0 °F 96% 30.16 in 1.8 mi ESE 4.6 mph - N/A   Partly Cloudy
5:22 AM 44.1 °F 41.5 °F 43.0 °F 96% 30.15 in 3.0 mi SE 4.6 mph - N/A   Scattered Clouds
5:42 AM 45.0 °F - 44.1 °F 97% 30.16 in 1.5 mi Calm Calm - N/A   Partly Cloudy
5:45 AM 45.0 °F - 44.1 °F 97% 30.16 in 0.8 mi Calm Calm - N/A   Mist
5:53 AM 45.0 °F 43.5 °F 44.1 °F 97% 30.17 in 1.2 mi SSE 3.5 mph - N/A   Clear
5:58 AM 45.0 °F 43.5 °F 44.1 °F 97% 30.16 in 3.0 mi SSE 3.5 mph - N/A   Clear
6:53 AM 48.0 °F - 46.9 °F 96% 30.18 in 3.0 mi SSE 6.9 mph - N/A   Clear
7:53 AM 51.1 °F - 46.9 °F 86% 30.17 in 10.0 mi SE 9.2 mph - N/A   Clear
8:53 AM 55.9 °F - 48.9 °F 77% 30.17 in 10.0 mi SSW 9.2 mph - N/A   Scattered Clouds
9:53 AM 57.9 °F - 48.0 °F 70% 30.17 in 10.0 mi South 12.7 mph 19.6 mph N/A   Overcast
10:53 AM 63.0 °F - 50.0 °F 63% 30.15 in 10.0 mi South 10.4 mph - N/A   Clear
11:53 AM 62.1 °F - 50.0 °F 65% 30.14 in 10.0 mi SSW 9.2 mph 18.4 mph N/A   Overcast
12:53 PM 60.1 °F - 53.1 °F 78% 30.13 in 10.0 mi South 9.2 mph - 0.02 in   Overcast
1:53 PM 62.1 °F - 55.0 °F 78% 30.10 in 10.0 mi South 9.2 mph - 0.00 in   Mostly Cloudy
2:21 PM 63.0 °F - 55.0 °F 75% 30.08 in 10.0 mi SSE 10.4 mph 23.0 mph N/A   Mostly Cloudy
2:53 PM 64.9 °F - 55.0 °F 70% 30.05 in 10.0 mi South 13.8 mph 18.4 mph N/A   Scattered Clouds
3:53 PM 70.0 °F - 57.0 °F 63% 30.02 in 10.0 mi South 10.4 mph - N/A   Partly Cloudy
4:53 PM 71.1 °F - 57.0 °F 61% 29.99 in 10.0 mi South 12.7 mph 20.7 mph N/A   Scattered Clouds
5:53 PM 69.1 °F - 55.9 °F 63% 29.99 in 10.0 mi South 11.5 mph 18.4 mph N/A   Mostly Cloudy
6:53 PM 68.0 °F - 55.9 °F 65% 29.97 in 10.0 mi South 15.0 mph 21.9 mph N/A   Scattered Clouds
7:53 PM 64.9 °F - 57.0 °F 75% 29.97 in 10.0 mi SSW 8.1 mph - 0.00 in   Mostly Cloudy
8:53 PM 64.0 °F - 55.9 °F 75% 29.96 in 10.0 mi South 9.2 mph - 0.00 in   Mostly Cloudy
9:34 PM 64.0 °F - 55.9 °F 75% 29.98 in 10.0 mi SSW 6.9 mph - 0.00 in Rain , Thunderstorm Light Rain
9:53 PM 62.1 °F - 57.0 °F 84% 29.98 in 5.0 mi SSW 10.4 mph - 0.04 in Rain , Thunderstorm Rain
10:02 PM 61.0 °F - 57.9 °F 90% 30.01 in 4.0 mi SW 8.1 mph - 0.03 in Rain , Thunderstorm Thunderstorms and Rain
10:11 PM 61.0 °F - 57.9 °F 90% 30.02 in 2.5 mi West 6.9 mph - 0.07 in Rain , Thunderstorm Heavy Rain
10:23 PM 60.1 °F - 59.0 °F 96% 30.02 in 2.0 mi SW 4.6 mph - 0.15 in Rain Heavy Rain
10:46 PM 60.1 °F - 59.0 °F 96% 30.00 in 3.0 mi South 5.8 mph - 0.28 in Rain Heavy Rain
10:53 PM 60.1 °F - 59.0 °F 96% 29.98 in 2.5 mi South 6.9 mph - 0.33 in Rain Heavy Rain
10:55 PM 60.1 °F - 59.0 °F 96% 29.99 in 3.0 mi South 6.9 mph - 0.01 in Rain Rain
11:07 PM 60.1 °F - 59.0 °F 96% 29.99 in 3.0 mi South 5.8 mph - 0.05 in Rain Rain
11:15 PM 60.1 °F - 59.0 °F 96% 29.99 in 2.5 mi South 9.2 mph - 0.10 in Rain Rain
11:20 PM 60.1 °F - 60.1 °F 100% 29.98 in 4.0 mi South 9.2 mph - 0.11 in Rain Light Rain
11:53 PM 61.0 °F - 60.1 °F 97% 29.97 in 7.0 mi SSW 6.9 mph - 0.11 in Rain Light Rain